Tracking 33831 objects as of 16-Apr-2026
HD Live streaming from Space Station
objects crossing your sky now

COSMOS 1275 DEB

Track COSMOS 1275 DEB now!
10-day predictions


NORAD ID: 42181
Int'l Code: 1981-053SV
Perigee: 870.1 km
Apogee: 972.0 km
Inclination: 82.9 °
Period: 103.3 minutes
Semi major axis: 7292 km
RCS: Unknown
Launch date: June 4, 1981
Source: Commonwealth of Independent States (former USSR) (CIS)
Launch site: PLESETSK MISSILE AND SPACE COMPLEX (PKMTR)

Note: This is SATELLITE DEBRIS
Your satellite tracking list
Your tracking list is empty




NASA's NSSDC Master Catalog

Two Line Element Set (TLE):
1 42181U 81053SV  26106.29290412  .00001009  00000-0  73436-3 0  9993
2 42181  82.8986 118.7057 0069897 280.7301  78.6002 13.94214205 70313
Source of the keplerian elements: AFSPC